Location: Asheville, NC
(35.6000°N, 82.5500°W)
Time: 01:18:44
(UTC-05:00)

Envisat - Pass Details

Date: 16 October 2017
Orbit: 764 x 766 km, 98.2° (Epoch: 11 December)

Event Time Altitude Azimuth Distance (km) Brightness Sun altitude
Exits shadow 22:26:30 11° 314° (NW) 2,215 5.9 -43.4°
Drops below altitude 10° 22:26:48 10° 317° (NW) 2,306 6.0 -43.5°
Sets 22:29:35 0° 332° (NNW) 3,237 6.8 -44.0°
